STARLINK-37021, 68105

Orbit data source: Space-Track

STARLINK-37021, 68105 is a payload satellite owned by SpaceX/Seattle (US) in SSO that was launched on Sun, 08 Mar 2026 UTC via an FALCON 9 launch vehicle from the Air Force Western Test Range (AFWTR). Payload-class satellites include a variety of spacecraft equipped with specific instruments for various scientific and technological missions. These include communications satellites like Starlink; space stations such as the ISS; scientific satellites like the Hubble; Earth observation satellites from companies like Planet Labs, Umbra, and HawkEye 360; GPS; miniature CubeSats for education and research; and military/defense satellites.

Loading next visibility...
Identifier
68105, 2026-044E
Orbit
SSO
Country
Flag of USUS
Related business
Manufacturer
SpaceX/Seattle
Mission
Operational spacecraft
Bus & Motor
STARLINK V2MO, Unknown motor
Mass
575 kg wet, ~530 kg dry
Launch date (UTC)
2026-03-08 (1 month ago)
Launch vehicle
FALCON 9
Launch site
Air Force Western Test Range (AFWTR)
Object type
Payload
Rocket body
Debris
Shape & HBR
Unknown shape, 17.7 m
Radar Cross Section
RCS unknown

Expand to show TLE details & history
Last TLE update: 17 hours ago

TLE from 17 hours ago
0 STARLINK-37021
1 68105U 26044E   26104.85786885  .00016658  00000-0  51699-3 0  9993
2 68105  97.2844  66.0149 0002091  99.6224 260.5255 15.33455739  7126
Epoch: 2026-04-14T20:35Z
TLE epoch observation values (Epoch: 2026-04-14T20:35:19.868Z)
Latitude
-0.00004°
Longitude
-85.84597°
Altitude
468.859 km
Speed
7.632 km/s
True Right ascension
04h 24m 03s
True Declination
0° 00' 00"
Sunlit
Object was in daylight at epoch
Visualization orbit readout
Latitude
Unknown
Longitude
Unknown
Altitude
Unknown
Speed
Unknown
Apparent Right ascension
Unknown
Apparent Declination
Unknown
Sunlit
N/A
Visualization observer readout
Local Sidereal Time
20:30:30
Azimuth
Unknown
Elevation
Unknown
Doppler factor
Unknown
Orbital elements
Apogee altitude
463.884 km
Perigee altitude
461.024 km
Semi-major axis
6,840.591 km
Eccentricity
0.00021
Inclination
97.2844°
RAAN
66.0149°
Arg. of periapsis
99.6224°
True anomaly
260.50187°
Mean anomaly
260.5255°
Eccentric anomaly
260.51368°
Mean motion
3.83621 °/min
Orbital period
93.84 mins
BSTAR
0.00051699
Loading maneuver chart data...
Computing Atmospheric mass density...
Loading historical data...
Loading historical data...
Loading historical data...
Loading historical data...
Loading historical data...
Loading historical data...
Loading historical data...

Documentation

Showing up to 5 results
|